Weather History for KO54 - February, 2013

Change the Weather History Date:

Friday, February 22, 2013

  Actual Average (KRDD) Record (KRDD)
Temperature  
Mean Temperature 40 °F -  
Max Temperature 57 °F 61 °F 80 °F (1988)
Min Temperature 24 °F 40 °F 29 °F (1994)
Degree Days  
Heating Degree Days 24    
Cooling Degree Days 0    
Moisture  
Dew Point 31 °F    
Average Humidity 75    
Maximum Humidity 100    
Minimum Humidity 38    
Precipitation  
Precipitation 0.01 in 0.20 in 3.17 in (2001)
Month to date precipitation 4.37  
Year to date precipitation 10.33  
Sea Level Pressure  
Sea Level Pressure 30.18 in    
Wind  
Wind Speed 3 mph (SSW)    
Max Wind Speed 16 mph    
Max Gust Speed 26 mph    
Visibility 10 miles    
Events      
T = Trace of Precipitation, MM = Missing Value Source: NWS Daily Summary

Daily Weather History Graph

Daily Weather History Graph

Search for Another Location

Airport or City:

Trip Planner

Search our weather history database for the weather conditions in past years. The results will help you decide how hot, cold, wet, or windy it might be!

Date:

Astronomy

Feb. 22, 2013 Rise Set
Actual Time 6:55 AM PST 5:55 PM PST
Civil Twilight 6:27 AM PST 6:23 PM PST
Nautical Twilight 5:56 AM PST 6:54 PM PST
Astronomical Twilight 5:24 AM PST 7:26 PM PST
Moon 3:11 PM PST (2/22) 4:45 AM PST (2/22)
Length of Visible Light 11h 55m
Length of Day
10h 59m
Waxing Gibbous, 91% of the Moon is Illuminated
Feb 22
Waxing Gibbous
Feb 25
Full
Mar 4
Last Quarter
Mar 11
New
Mar 19
First Quarter

Hourly Weather History & Observations

Time (PST) Temp. Windchill Dew Point Humidity Pressure Visibility Wind Dir Wind Speed Gust Speed Precip Events Conditions
12:15 AM 30.2 °F - 26.6 °F 86% 30.20 in 10.0 mi Calm Calm - N/A   Clear
12:35 AM 30.2 °F - 26.6 °F 86% 30.20 in 10.0 mi Calm Calm - N/A   Clear
12:55 AM 30.2 °F - 26.6 °F 86% 30.21 in 10.0 mi Calm Calm - N/A   Clear
1:15 AM 28.4 °F - 26.6 °F 93% 30.22 in 10.0 mi Calm Calm - N/A   Clear
1:35 AM 28.4 °F - 26.6 °F 93% 30.22 in 10.0 mi Calm Calm - N/A   Clear
1:55 AM 28.4 °F - 26.6 °F 93% 30.23 in 10.0 mi Calm Calm - N/A   Clear
2:15 AM 28.4 °F - 26.6 °F 93% 30.23 in 10.0 mi Calm Calm - N/A   Clear
2:35 AM 28.4 °F - 26.6 °F 93% 30.22 in 10.0 mi Calm Calm - N/A   Clear
2:55 AM 28.4 °F - 26.6 °F 93% 30.23 in 10.0 mi Calm Calm - N/A   Clear
3:15 AM 28.4 °F - 24.8 °F 86% 30.23 in 10.0 mi Calm Calm - N/A   Clear
3:35 AM 26.6 °F - 24.8 °F 93% 30.22 in 10.0 mi Calm Calm - N/A   Clear
4:15 AM 26.6 °F - 24.8 °F 93% 30.23 in 10.0 mi Calm Calm - N/A   Clear
4:35 AM 26.6 °F - 24.8 °F 93% 30.23 in 10.0 mi Calm Calm - N/A   Clear
4:55 AM 26.6 °F - 24.8 °F 93% 30.23 in 10.0 mi Calm Calm - N/A   Clear
5:15 AM 26.6 °F - 24.8 °F 93% 30.23 in 10.0 mi Calm Calm - N/A   Clear
5:35 AM 26.6 °F - 24.8 °F 93% 30.23 in 8.0 mi Calm Calm - N/A   Clear
5:55 AM 26.6 °F - 24.8 °F 93% 30.23 in 9.0 mi Calm Calm - N/A   Clear
6:15 AM 26.6 °F - 24.8 °F 93% 30.23 in 10.0 mi Calm Calm - N/A   Clear
6:35 AM 26.6 °F - 24.8 °F 93% 30.23 in 10.0 mi Calm Calm - N/A   Clear
6:55 AM 24.8 °F - 24.8 °F 100% 30.23 in 10.0 mi Calm Calm - N/A   Clear
7:15 AM 26.6 °F - 24.8 °F 93% 30.24 in 10.0 mi Calm Calm - N/A   Clear
7:35 AM 26.6 °F - 24.8 °F 93% 30.25 in 10.0 mi Calm Calm - N/A   Partly Cloudy
7:55 AM 26.6 °F - 24.8 °F 93% 30.25 in 10.0 mi Calm Calm - N/A   Mostly Cloudy
8:15 AM 28.4 °F - 26.6 °F 93% 30.24 in 10.0 mi Calm Calm - N/A   Overcast
8:35 AM 30.2 °F - 26.6 °F 86% 30.25 in 10.0 mi Calm Calm - N/A   Overcast
8:55 AM 32.0 °F - 28.4 °F 87% 30.25 in 10.0 mi Calm Calm - N/A   Overcast
9:15 AM 32.0 °F 28.7 °F 28.4 °F 87% 30.25 in 10.0 mi SSW 3.5 mph - N/A   Overcast
9:35 AM 32.0 °F - 28.4 °F 87% 30.25 in 10.0 mi Calm Calm - N/A   Overcast
9:55 AM 33.8 °F - 28.4 °F 81% 30.25 in 10.0 mi Calm Calm - N/A   Mostly Cloudy
10:15 AM 35.6 °F 32.8 °F 30.2 °F 81% 30.25 in 10.0 mi SSW 3.5 mph - N/A   Scattered Clouds
10:35 AM 37.4 °F - 30.2 °F 75% 30.24 in 10.0 mi Calm Calm - N/A   Mostly Cloudy
10:55 AM 39.2 °F 37.0 °F 28.4 °F 65% 30.23 in 10.0 mi SW 3.5 mph - N/A   Partly Cloudy
11:15 AM 41.0 °F - 28.4 °F 61% 30.23 in 10.0 mi Calm Calm - N/A   Clear
11:35 AM 44.6 °F 43.1 °F 28.4 °F 53% 30.22 in 10.0 mi SSW 3.5 mph - N/A   Clear
11:55 AM 46.4 °F 43.5 °F 28.4 °F 50% 30.21 in 10.0 mi SSW 5.8 mph - N/A   Clear
12:15 PM 48.2 °F - 32.0 °F 54% 30.20 in 10.0 mi South 5.8 mph - N/A   Clear
12:35 PM 48.2 °F - 32.0 °F 54% 30.18 in 10.0 mi SSW 6.9 mph - N/A   Clear
12:55 PM 51.8 °F - 32.0 °F 47% 30.17 in 10.0 mi SSW 5.8 mph - N/A   Clear
1:15 PM 53.6 °F - 32.0 °F 44% 30.15 in 10.0 mi SW 6.9 mph - N/A   Clear
1:35 PM 55.4 °F - 32.0 °F 41% 30.14 in 10.0 mi SSW 5.8 mph - N/A   Clear
1:55 PM 55.4 °F - 32.0 °F 41% 30.13 in 10.0 mi SSW 10.4 mph 21.9 mph N/A   Clear
2:15 PM 57.2 °F - 32.0 °F 38% 30.12 in 10.0 mi SW 16.1 mph 21.9 mph N/A   Clear
2:35 PM 57.2 °F - 32.0 °F 38% 30.12 in 10.0 mi SW 13.8 mph 24.2 mph N/A   Clear
2:55 PM 57.2 °F - 32.0 °F 38% 30.11 in 10.0 mi SW 12.7 mph 26.5 mph N/A   Clear
3:15 PM 55.4 °F - 32.0 °F 41% 30.11 in 10.0 mi SW 12.7 mph 25.3 mph N/A   Clear
3:35 PM 55.4 °F - 32.0 °F 41% 30.11 in 10.0 mi SW 13.8 mph 20.7 mph N/A   Clear
3:55 PM 53.6 °F - 32.0 °F 44% 30.11 in 10.0 mi SSW 11.5 mph 19.6 mph N/A   Clear
4:15 PM 53.6 °F - 32.0 °F 44% 30.11 in 10.0 mi SW 11.5 mph 25.3 mph N/A   Clear
4:35 PM 53.6 °F - 32.0 °F 44% 30.12 in 10.0 mi SSW 15.0 mph 20.7 mph N/A   Clear
4:55 PM 51.8 °F - 32.0 °F 47% 30.12 in 10.0 mi SW 10.4 mph 25.3 mph N/A   Partly Cloudy
5:15 PM 48.2 °F - 35.6 °F 62% 30.13 in 6.0 mi South 5.8 mph 18.4 mph N/A   Mostly Cloudy
5:35 PM 46.4 °F 43.5 °F 37.4 °F 71% 30.13 in 9.0 mi SSW 5.8 mph 16.1 mph N/A   Overcast
5:55 PM 46.4 °F 41.9 °F 37.4 °F 71% 30.14 in 10.0 mi SSW 9.2 mph - N/A   Overcast
6:15 PM 44.6 °F 39.7 °F 37.4 °F 76% 30.11 in 10.0 mi South 9.2 mph - N/A   Overcast
6:35 PM 44.6 °F 40.2 °F 35.6 °F 71% 30.12 in 10.0 mi SSW 8.1 mph 16.1 mph N/A   Mostly Cloudy
6:55 PM 44.6 °F 39.2 °F 37.4 °F 76% 30.11 in 10.0 mi SSW 10.4 mph - N/A   Overcast
7:15 PM 44.6 °F 39.2 °F 37.4 °F 76% 30.11 in 10.0 mi SSW 10.4 mph - N/A   Overcast
7:35 PM 44.6 °F 38.4 °F 37.4 °F 76% 30.12 in 7.0 mi SSW 12.7 mph 17.3 mph N/A   Overcast
7:55 PM 41.0 °F 32.8 °F 37.4 °F 87% 30.12 in 8.0 mi SSW 16.1 mph 24.2 mph 0.01 in   Overcast
8:15 PM 42.8 °F 35.4 °F 37.4 °F 81% 30.11 in 10.0 mi SSW 15.0 mph 24.2 mph N/A   Overcast
8:35 PM 42.8 °F 36.2 °F 37.4 °F 81% 30.11 in 10.0 mi SSW 12.7 mph 23.0 mph N/A   Overcast
8:55 PM 44.6 °F 39.2 °F 35.6 °F 71% 30.12 in 10.0 mi SW 10.4 mph 24.2 mph N/A   Overcast
9:15 PM 42.8 °F 37.5 °F 37.4 °F 81% 30.12 in 10.0 mi SSW 9.2 mph 20.7 mph N/A   Overcast
9:35 PM 42.8 °F 37.0 °F 37.4 °F 81% 30.12 in 8.0 mi SW 10.4 mph 25.3 mph N/A   Mostly Cloudy
9:55 PM 42.8 °F 38.6 °F 37.4 °F 81% 30.11 in 10.0 mi SW 6.9 mph - N/A   Overcast
10:15 PM 42.8 °F 37.0 °F 37.4 °F 81% 30.11 in 10.0 mi SSW 10.4 mph 16.1 mph N/A   Overcast
10:35 PM 42.8 °F 38.0 °F 37.4 °F 81% 30.10 in 8.0 mi SSW 8.1 mph - N/A   Overcast
10:55 PM 42.8 °F 38.6 °F 37.4 °F 81% 30.10 in 10.0 mi SW 6.9 mph - N/A   Overcast
11:15 PM 42.8 °F 37.5 °F 37.4 °F 81% 30.10 in 10.0 mi SW 9.2 mph - N/A   Mostly Cloudy
11:35 PM 42.8 °F 37.5 °F 35.6 °F 76% 30.09 in 10.0 mi SSW 9.2 mph 17.3 mph N/A   Mostly Cloudy
11:55 PM 42.8 °F 37.0 °F 35.6 °F 76% 30.09 in 10.0 mi SSW 10.4 mph 18.4 mph N/A   Partly Cloudy